Time,TemperatureF,DewpointF,PressureIn,WindDirection,WindDirectionDegrees,WindSpeedMPH,WindSpeedGustMPH,Humidity,HourlyPrecipIn,Conditions,Clouds,dailyrainin,SoftwareType,DateUTC
2013-10-19 00:01:00,43.7,42.4,29.96,NNW,333,0.0,0.0,95,0.00,,CLR,0.01,VWS V14.01,2013-10-19 04:01:00,
2013-10-19 00:03:00,43.8,42.5,29.96,NNW,333,0.0,0.0,95,0.00,,CLR,0.01,VWS V14.01,2013-10-19 04:03:00,
2013-10-19 00:08:00,44.2,42.9,29.96,NNW,333,0.0,0.0,95,0.00,,CLR,0.00,VWS V14.01,2013-10-19 04:08:00,
2013-10-19 00:13:00,44.6,43.3,29.96,NNW,331,0.0,0.0,95,0.00,,CLR,0.00,VWS V14.01,2013-10-19 04:13:00,
2013-10-19 00:18:00,44.9,43.3,29.96,WSW,257,0.0,0.0,94,0.00,,CLR,0.00,VWS V14.01,2013-10-19 04:18:00,
2013-10-19 00:23:00,45.5,43.6,29.96,WSW,257,0.0,0.0,93,0.00,,CLR,0.00,VWS V14.01,2013-10-19 04:23:00,
2013-10-19 00:28:00,45.7,43.8,29.96,WSW,257,0.0,0.0,93,0.00,,CLR,0.00,VWS V14.01,2013-10-19 04:28:00,
2013-10-19 00:34:00,46.0,44.1,29.96,WSW,257,0.0,0.0,93,0.00,,CLR,0.00,VWS V14.01,2013-10-19 04:34:00,
2013-10-19 00:39:00,46.4,43.6,29.96,West,260,0.0,0.0,90,0.00,,CLR,0.00,VWS V14.01,2013-10-19 04:39:00,
2013-10-19 00:44:00,47.4,43.4,29.96,WSW,254,0.0,0.0,86,0.00,,CLR,0.00,VWS V14.01,2013-10-19 04:44:00,
2013-10-19 00:49:00,48.2,43.3,29.96,West,263,0.0,0.0,83,0.00,,CLR,0.00,VWS V14.01,2013-10-19 04:49:00,
2013-10-19 00:54:00,48.6,43.0,29.96,WSW,252,0.0,0.0,81,0.00,,CLR,0.00,VWS V14.01,2013-10-19 04:54:00,
2013-10-19 00:59:00,48.8,42.9,29.96,WSW,256,0.0,0.0,80,0.00,,CLR,0.00,VWS V14.01,2013-10-19 04:59:00,
2013-10-19 01:04:00,49.0,43.1,29.96,WSW,257,0.0,0.0,80,0.00,,CLR,0.00,VWS V14.01,2013-10-19 05:04:00,
2013-10-19 01:09:00,49.1,42.9,29.95,WSW,257,0.0,0.0,79,0.00,,CLR,0.00,VWS V14.01,2013-10-19 05:09:00,
2013-10-19 01:14:00,49.3,42.7,29.95,WSW,256,0.0,0.0,78,0.00,,CLR,0.00,VWS V14.01,2013-10-19 05:14:00,
2013-10-19 01:20:00,49.5,42.6,29.95,WSW,258,0.0,0.0,77,0.00,,CLR,0.00,VWS V14.01,2013-10-19 05:20:00,
2013-10-19 01:25:00,49.8,42.9,29.95,West,262,0.0,0.0,77,0.00,,CLR,0.00,VWS V14.01,2013-10-19 05:25:00,
2013-10-19 01:30:00,49.7,42.8,29.95,West,260,0.0,0.0,77,0.00,,CLR,0.00,VWS V14.01,2013-10-19 05:30:00,
2013-10-19 01:35:00,49.6,43.0,29.95,West,260,0.0,0.0,78,0.00,,CLR,0.00,VWS V14.01,2013-10-19 05:35:00,
2013-10-19 01:40:00,49.1,42.9,29.95,West,262,0.0,0.0,79,0.00,,CLR,0.00,VWS V14.01,2013-10-19 05:40:00,
2013-10-19 01:45:00,48.4,42.2,29.95,West,262,0.0,0.0,79,0.00,,OVC075,0.00,VWS V14.01,2013-10-19 05:45:00,
2013-10-19 01:50:00,47.9,42.0,29.95,West,261,0.0,0.0,80,0.00,,OVC075,0.00,VWS V14.01,2013-10-19 05:50:00,
2013-10-19 01:55:00,47.4,41.9,29.95,West,269,0.0,0.0,81,0.00,,OVC075,0.00,VWS V14.01,2013-10-19 05:55:00,
2013-10-19 02:00:00,47.2,42.0,29.95,West,269,0.0,0.0,82,0.00,,OVC075,0.00,VWS V14.01,2013-10-19 06:00:00,
2013-10-19 02:05:00,47.1,41.9,29.95,West,269,0.0,0.0,82,0.00,,OVC075,0.00,VWS V14.01,2013-10-19 06:05:00,
2013-10-19 02:11:00,47.2,42.3,29.95,West,269,0.0,0.0,83,0.00,,OVC075,0.00,VWS V14.01,2013-10-19 06:11:00,
2013-10-19 02:16:00,47.3,42.4,29.94,West,269,0.0,0.0,83,0.00,,OVC075,0.00,VWS V14.01,2013-10-19 06:16:00,
2013-10-19 02:21:00,47.5,42.6,29.94,West,269,0.0,0.0,83,0.00,,OVC075,0.00,VWS V14.01,2013-10-19 06:21:00,
2013-10-19 02:26:00,47.6,42.7,29.94,West,269,0.0,0.0,83,0.00,,OVC075,0.00,VWS V14.01,2013-10-19 06:26:00,
2013-10-19 02:31:00,47.5,42.6,29.94,West,269,0.0,0.0,83,0.00,,OVC075,0.00,VWS V14.01,2013-10-19 06:31:00,
2013-10-19 02:36:00,47.6,42.7,29.94,West,269,0.0,0.0,83,0.00,,OVC075,0.00,VWS V14.01,2013-10-19 06:36:00,
2013-10-19 02:41:00,47.6,43.0,29.94,West,269,0.0,0.0,84,0.00,,OVC075,0.00,VWS V14.01,2013-10-19 06:41:00,
2013-10-19 02:46:00,47.5,42.9,29.95,West,269,0.0,0.0,84,0.00,,BKN080,0.00,VWS V14.01,2013-10-19 06:46:00,
2013-10-19 02:51:00,47.7,42.8,29.94,SW,236,0.0,0.0,83,0.00,,BKN080,0.00,VWS V14.01,2013-10-19 06:51:00,
2013-10-19 02:56:00,48.5,43.0,29.94,WSW,241,2.0,2.0,81,0.00,,BKN080,0.00,VWS V14.01,2013-10-19 06:56:00,
2013-10-19 03:02:00,49.4,43.2,29.94,WSW,239,0.0,2.0,79,0.00,,BKN080,0.00,VWS V14.01,2013-10-19 07:02:00,
2013-10-19 03:07:00,49.8,43.6,29.94,SW,232,0.0,0.0,79,0.00,,BKN080,0.00,VWS V14.01,2013-10-19 07:07:00,
2013-10-19 03:12:00,50.0,43.4,29.94,SW,233,0.0,0.0,78,0.00,,BKN080,0.00,VWS V14.01,2013-10-19 07:12:00,
2013-10-19 03:17:00,50.2,43.6,29.94,WSW,245,0.0,0.0,78,0.00,,BKN080,0.00,VWS V14.01,2013-10-19 07:17:00,
2013-10-19 03:22:00,50.3,43.7,29.94,WSW,255,0.0,0.0,78,0.00,,BKN080,0.00,VWS V14.01,2013-10-19 07:22:00,
2013-10-19 03:27:00,50.3,43.4,29.94,WSW,250,0.0,0.0,77,0.00,,BKN080,0.00,VWS V14.01,2013-10-19 07:27:00,
2013-10-19 03:32:00,50.5,43.2,29.94,WSW,246,2.0,2.0,76,0.00,,BKN080,0.00,VWS V14.01,2013-10-19 07:32:00,
2013-10-19 03:37:00,50.7,43.4,29.93,WSW,243,3.0,3.0,76,0.00,,BKN080,0.00,VWS V14.01,2013-10-19 07:37:00,
2013-10-19 03:42:00,50.8,43.5,29.93,WSW,253,1.0,3.0,76,0.00,,BKN080,0.00,VWS V14.01,2013-10-19 07:42:00,
2013-10-19 03:47:00,51.0,43.4,29.93,WSW,250,3.0,3.0,75,0.00,,OVC080,0.00,VWS V14.01,2013-10-19 07:47:00,
2013-10-19 03:53:00,51.2,43.6,29.93,West,266,2.0,3.0,75,0.00,,OVC080,0.00,VWS V14.01,2013-10-19 07:53:00,
2013-10-19 03:58:00,51.4,43.8,29.93,West,259,2.0,4.0,75,0.00,,OVC080,0.00,VWS V14.01,2013-10-19 07:58:00,
2013-10-19 04:03:00,51.6,44.0,29.93,WSW,257,2.0,4.0,75,0.00,,OVC080,0.00,VWS V14.01,2013-10-19 08:03:00,
2013-10-19 04:08:00,51.7,43.7,29.93,WSW,255,3.0,4.0,74,0.00,,OVC080,0.00,VWS V14.01,2013-10-19 08:08:00,
2013-10-19 04:13:00,51.8,43.8,29.93,SW,236,2.0,4.0,74,0.00,,OVC080,0.00,VWS V14.01,2013-10-19 08:13:00,
2013-10-19 04:18:00,51.7,43.7,29.93,SW,236,3.0,4.0,74,0.00,,OVC080,0.00,VWS V14.01,2013-10-19 08:18:00,
2013-10-19 04:23:00,51.6,43.6,29.93,WSW,257,2.0,4.0,74,0.00,,OVC080,0.00,VWS V14.01,2013-10-19 08:23:00,
2013-10-19 04:28:00,51.4,43.4,29.93,WSW,246,2.0,4.0,74,0.00,,OVC080,0.00,VWS V14.01,2013-10-19 08:28:00,
2013-10-19 04:33:00,51.3,43.3,29.93,West,260,2.0,3.0,74,0.00,,OVC080,0.00,VWS V14.01,2013-10-19 08:33:00,
2013-10-19 04:39:00,51.2,43.2,29.92,WSW,238,2.0,3.0,74,0.00,,OVC080,0.00,VWS V14.01,2013-10-19 08:39:00,
2013-10-19 04:44:00,51.1,43.5,29.92,WSW,245,1.0,3.0,75,0.00,,OVC080,0.00,VWS V14.01,2013-10-19 08:44:00,
2013-10-19 04:49:00,50.9,43.3,29.93,WSW,248,1.0,3.0,75,0.00,,OVC070,0.00,VWS V14.01,2013-10-19 08:49:00,
2013-10-19 04:54:00,50.8,43.2,29.92,WSW,253,0.0,3.0,75,0.00,,OVC070,0.00,VWS V14.01,2013-10-19 08:54:00,
2013-10-19 04:59:00,50.7,43.4,29.93,WSW,255,0.0,3.0,76,0.00,,OVC070,0.00,VWS V14.01,2013-10-19 08:59:00,
2013-10-19 05:04:00,50.7,43.4,29.92,West,262,0.0,3.0,76,0.00,,OVC070,0.00,VWS V14.01,2013-10-19 09:04:00,
2013-10-19 05:09:00,50.8,43.2,29.93,West,262,0.0,3.0,75,0.00,,OVC070,0.00,VWS V14.01,2013-10-19 09:09:00,
2013-10-19 05:14:00,50.8,43.2,29.92,WSW,257,0.0,3.0,75,0.00,,OVC070,0.00,VWS V14.01,2013-10-19 09:14:00,
2013-10-19 05:19:00,50.6,43.3,29.92,WSW,257,0.0,3.0,76,0.00,,OVC070,0.00,VWS V14.01,2013-10-19 09:19:00,
2013-10-19 05:24:00,50.3,43.0,29.92,WSW,257,0.0,3.0,76,0.00,,OVC070,0.00,VWS V14.01,2013-10-19 09:24:00,
2013-10-19 05:30:00,50.2,42.9,29.92,West,262,0.0,3.0,76,0.00,,OVC070,0.00,VWS V14.01,2013-10-19 09:30:00,
2013-10-19 05:35:00,50.4,43.1,29.92,WSW,255,0.0,1.0,76,0.00,,OVC070,0.00,VWS V14.01,2013-10-19 09:35:00,
2013-10-19 05:40:00,50.5,43.2,29.92,WSW,257,0.0,2.0,76,0.00,,OVC070,0.00,VWS V14.01,2013-10-19 09:40:00,
2013-10-19 05:45:00,50.4,42.8,29.92,West,260,0.0,2.0,75,0.00,,FEW060,0.00,VWS V14.01,2013-10-19 09:45:00,
2013-10-19 05:50:00,50.4,43.1,29.92,WSW,242,0.0,2.0,76,0.00,,FEW060,0.00,VWS V14.01,2013-10-19 09:50:00,
2013-10-19 05:55:00,50.4,43.1,29.91,WSW,255,0.0,2.0,76,0.00,,FEW060,0.00,VWS V14.01,2013-10-19 09:55:00,
2013-10-19 06:00:00,50.3,43.0,29.91,WSW,250,1.0,2.0,76,0.00,,FEW060,0.00,VWS V14.01,2013-10-19 10:00:00,
2013-10-19 06:05:00,50.3,43.0,29.91,WSW,253,0.0,2.0,76,0.00,,FEW060,0.00,VWS V14.01,2013-10-19 10:05:00,
2013-10-19 06:10:00,50.2,42.9,29.91,WSW,256,3.0,4.0,76,0.00,,FEW060,0.00,VWS V14.01,2013-10-19 10:10:00,
2013-10-19 06:16:00,50.2,42.9,29.92,West,259,1.0,4.0,76,0.00,,FEW060,0.00,VWS V14.01,2013-10-19 10:16:00,
2013-10-19 06:21:00,50.2,42.9,29.92,WSW,252,4.0,5.0,76,0.00,,FEW060,0.00,VWS V14.01,2013-10-19 10:21:00,
2013-10-19 06:26:00,50.3,43.0,29.92,WSW,242,4.0,5.0,76,0.00,,FEW060,0.00,VWS V14.01,2013-10-19 10:26:00,
2013-10-19 06:31:00,50.3,43.0,29.91,West,267,1.0,5.0,76,0.00,,FEW060,0.00,VWS V14.01,2013-10-19 10:31:00,
2013-10-19 06:36:00,50.1,42.8,29.91,WSW,257,2.0,3.0,76,0.00,,FEW060,0.00,VWS V14.01,2013-10-19 10:36:00,
2013-10-19 06:41:00,50.1,42.8,29.91,West,262,2.0,3.0,76,0.00,,FEW060,0.00,VWS V14.01,2013-10-19 10:41:00,
2013-10-19 06:46:00,50.1,42.8,29.91,WSW,256,1.0,3.0,76,0.00,,CLR,0.00,VWS V14.01,2013-10-19 10:46:00,
2013-10-19 06:51:00,50.2,42.9,29.91,WSW,253,1.0,3.0,76,0.00,,CLR,0.00,VWS V14.01,2013-10-19 10:51:00,
2013-10-19 06:56:00,50.1,42.8,29.91,WSW,243,2.0,3.0,76,0.00,,CLR,0.00,VWS V14.01,2013-10-19 10:56:00,
2013-10-19 07:01:00,49.9,43.0,29.91,West,269,2.0,3.0,77,0.00,,CLR,0.00,VWS V14.01,2013-10-19 11:01:00,
2013-10-19 07:07:00,49.8,42.9,29.91,West,260,1.0,2.0,77,0.00,,CLR,0.00,VWS V14.01,2013-10-19 11:07:00,
2013-10-19 07:12:00,49.9,43.0,29.91,WSW,256,1.0,2.0,77,0.00,,CLR,0.00,VWS V14.01,2013-10-19 11:12:00,
2013-10-19 07:17:00,49.9,43.0,29.91,WSW,253,1.0,3.0,77,0.00,,CLR,0.00,VWS V14.01,2013-10-19 11:17:00,
2013-10-19 07:22:00,50.0,43.1,29.91,West,262,1.0,3.0,77,0.00,,CLR,0.00,VWS V14.01,2013-10-19 11:22:00,
2013-10-19 07:27:00,50.0,42.7,29.91,WSW,245,2.0,3.0,76,0.00,,CLR,0.00,VWS V14.01,2013-10-19 11:27:00,
2013-10-19 07:32:00,50.0,42.7,29.90,WSW,248,0.0,3.0,76,0.00,,CLR,0.00,VWS V14.01,2013-10-19 11:32:00,
2013-10-19 07:37:00,50.1,42.8,29.90,WSW,250,0.0,2.0,76,0.00,,CLR,0.00,VWS V14.01,2013-10-19 11:37:00,
2013-10-19 07:42:00,50.2,42.9,29.90,WSW,245,0.0,2.0,76,0.00,,CLR,0.00,VWS V14.01,2013-10-19 11:42:00,
2013-10-19 07:47:00,50.2,42.9,29.90,SW,233,2.0,2.0,76,0.00,,CLR,0.00,VWS V14.01,2013-10-19 11:47:00,
2013-10-19 07:52:00,49.9,43.3,29.90,SW,228,0.0,2.0,78,0.00,,CLR,0.00,VWS V14.01,2013-10-19 11:52:00,
2013-10-19 07:58:00,49.6,43.0,29.90,SW,222,0.0,2.0,78,0.00,,CLR,0.00,VWS V14.01,2013-10-19 11:58:00,
2013-10-19 08:03:00,49.4,43.2,29.90,SSW,208,0.0,2.0,79,0.00,,CLR,0.00,VWS V14.01,2013-10-19 12:03:00,
2013-10-19 08:08:00,49.2,43.0,29.90,WSW,242,0.0,0.0,79,0.00,,CLR,0.00,VWS V14.01,2013-10-19 12:08:00,
2013-10-19 08:13:00,49.2,43.3,29.90,SW,229,0.0,1.0,80,0.00,,CLR,0.00,VWS V14.01,2013-10-19 12:13:00,
2013-10-19 08:20:00,49.4,43.5,29.90,WSW,248,0.0,1.0,80,0.00,,CLR,0.00,VWS V14.01,2013-10-19 12:20:00,
2013-10-19 08:25:00,49.7,43.8,29.90,SW,229,0.0,1.0,80,0.00,,CLR,0.00,VWS V14.01,2013-10-19 12:25:00,
2013-10-19 08:30:00,50.1,43.8,29.90,West,260,0.0,1.0,79,0.00,,CLR,0.00,VWS V14.01,2013-10-19 12:30:00,
2013-10-19 08:35:00,50.8,43.9,29.90,WSW,239,2.0,3.0,77,0.00,,CLR,0.00,VWS V14.01,2013-10-19 12:35:00,
2013-10-19 08:40:00,51.5,44.2,29.90,WSW,250,2.0,4.0,76,0.00,,CLR,0.00,VWS V14.01,2013-10-19 12:40:00,
2013-10-19 08:45:00,51.9,44.2,29.90,West,260,3.0,6.0,75,0.00,,CLR,0.00,VWS V14.01,2013-10-19 12:45:00,
2013-10-19 08:51:00,52.3,44.3,29.90,WSW,243,4.0,6.0,74,0.00,,CLR,0.00,VWS V14.01,2013-10-19 12:51:00,
2013-10-19 08:56:00,52.7,44.7,29.90,West,264,5.0,6.0,74,0.00,,CLR,0.00,VWS V14.01,2013-10-19 12:56:00,
2013-10-19 09:01:00,53.2,44.4,29.90,WSW,242,4.0,8.0,72,0.00,,CLR,0.00,VWS V14.01,2013-10-19 13:01:00,
2013-10-19 09:06:00,53.6,44.4,29.90,WSW,242,6.0,8.0,71,0.00,,CLR,0.00,VWS V14.01,2013-10-19 13:06:00,
2013-10-19 09:11:00,53.9,44.7,29.90,WSW,241,4.0,8.0,71,0.00,,CLR,0.00,VWS V14.01,2013-10-19 13:11:00,
2013-10-19 09:16:00,53.9,44.7,29.90,WSW,243,3.0,8.0,71,0.00,,CLR,0.00,VWS V14.01,2013-10-19 13:16:00,
2013-10-19 09:21:00,54.1,44.5,29.90,WSW,242,3.0,8.0,70,0.00,,CLR,0.00,VWS V14.01,2013-10-19 13:21:00,
2013-10-19 09:26:00,54.5,44.9,29.90,WSW,245,3.0,8.0,70,0.00,,CLR,0.00,VWS V14.01,2013-10-19 13:26:00,
2013-10-19 09:31:00,54.9,44.9,29.90,WSW,243,4.0,8.0,69,0.00,,CLR,0.00,VWS V14.01,2013-10-19 13:31:00,
2013-10-19 09:37:00,55.2,44.8,29.90,West,260,4.0,7.0,68,0.00,,CLR,0.00,VWS V14.01,2013-10-19 13:37:00,
2013-10-19 09:42:00,55.5,45.1,29.90,SW,231,5.0,7.0,68,0.00,,CLR,0.00,VWS V14.01,2013-10-19 13:42:00,
2013-10-19 09:47:00,55.6,45.2,29.90,SW,234,6.0,7.0,68,0.00,,CLR,0.00,VWS V14.01,2013-10-19 13:47:00,
2013-10-19 09:52:00,55.7,44.9,29.89,WSW,253,3.0,7.0,67,0.00,,CLR,0.00,VWS V14.01,2013-10-19 13:52:00,
2013-10-19 09:57:00,55.8,45.4,29.89,SW,231,4.0,7.0,68,0.00,,CLR,0.00,VWS V14.01,2013-10-19 13:57:00,
2013-10-19 10:02:00,56.1,45.3,29.89,WSW,256,3.0,7.0,67,0.00,,CLR,0.00,VWS V14.01,2013-10-19 14:02:00,
2013-10-19 10:07:00,56.2,45.0,29.88,SW,228,6.0,7.0,66,0.00,,CLR,0.00,VWS V14.01,2013-10-19 14:07:00,
2013-10-19 10:12:00,56.4,46.0,29.88,SW,226,5.0,8.0,68,0.00,,CLR,0.00,VWS V14.01,2013-10-19 14:12:00,
2013-10-19 10:17:00,56.6,45.8,29.88,WSW,248,4.0,8.0,67,0.00,,CLR,0.00,VWS V14.01,2013-10-19 14:17:00,
2013-10-19 10:22:00,57.1,46.3,29.87,WSW,239,3.0,8.0,67,0.00,,CLR,0.00,VWS V14.01,2013-10-19 14:22:00,
2013-10-19 10:28:00,57.7,46.4,29.87,WSW,250,2.0,8.0,66,0.00,,CLR,0.00,VWS V14.01,2013-10-19 14:28:00,
2013-10-19 10:33:00,58.0,46.3,29.87,WSW,242,4.0,8.0,65,0.00,,CLR,0.00,VWS V14.01,2013-10-19 14:33:00,
2013-10-19 10:38:00,58.2,46.1,29.87,WSW,243,5.0,7.0,64,0.00,,CLR,0.00,VWS V14.01,2013-10-19 14:38:00,
2013-10-19 10:43:00,58.4,45.9,29.87,WSW,245,6.0,7.0,63,0.00,,CLR,0.00,VWS V14.01,2013-10-19 14:43:00,
2013-10-19 10:48:00,58.5,46.4,29.87,WSW,248,4.0,8.0,64,0.00,,CLR,0.00,VWS V14.01,2013-10-19 14:48:00,
2013-10-19 10:53:00,58.6,46.1,29.87,WSW,238,6.0,8.0,63,0.00,,CLR,0.00,VWS V14.01,2013-10-19 14:53:00,
2013-10-19 10:58:00,58.7,46.6,29.87,WSW,256,3.0,8.0,64,0.00,,CLR,0.00,VWS V14.01,2013-10-19 14:58:00,
2013-10-19 11:03:00,58.9,46.3,29.87,SW,215,5.0,6.0,63,0.00,,CLR,0.00,VWS V14.01,2013-10-19 15:03:00,
2013-10-19 11:09:00,59.3,46.7,29.86,West,266,5.0,7.0,63,0.00,,CLR,0.00,VWS V14.01,2013-10-19 15:09:00,
2013-10-19 11:14:00,59.7,46.2,29.86,WSW,253,6.0,7.0,61,0.00,,CLR,0.00,VWS V14.01,2013-10-19 15:14:00,
2013-10-19 11:19:00,59.8,46.8,29.86,West,269,3.0,8.0,62,0.00,,CLR,0.00,VWS V14.01,2013-10-19 15:19:00,
2013-10-19 11:24:00,60.1,46.2,29.86,WSW,242,6.0,11.0,60,0.00,,CLR,0.00,VWS V14.01,2013-10-19 15:24:00,
2013-10-19 11:29:00,60.1,45.7,29.86,WSW,240,4.0,11.0,59,0.00,,CLR,0.00,VWS V14.01,2013-10-19 15:29:00,
2013-10-19 11:34:00,60.1,46.2,29.86,West,273,5.0,10.0,60,0.00,,CLR,0.00,VWS V14.01,2013-10-19 15:34:00,
2013-10-19 11:39:00,60.2,45.4,29.86,WSW,245,6.0,10.0,58,0.00,,CLR,0.00,VWS V14.01,2013-10-19 15:39:00,
2013-10-19 11:44:00,60.1,45.7,29.85,West,262,4.0,10.0,59,0.00,,CLR,0.00,VWS V14.01,2013-10-19 15:44:00,
2013-10-19 11:49:00,60.4,45.6,29.85,West,262,4.0,10.0,58,0.00,,CLR,0.00,VWS V14.01,2013-10-19 15:49:00,
2013-10-19 11:54:00,60.2,44.9,29.85,WSW,239,6.0,10.0,57,0.00,,CLR,0.00,VWS V14.01,2013-10-19 15:54:00,
2013-10-19 11:59:00,59.7,44.5,29.85,WSW,245,5.0,10.0,57,0.00,,CLR,0.00,VWS V14.01,2013-10-19 15:59:00,
2013-10-19 12:05:00,59.5,45.2,29.86,WSW,244,5.0,7.0,59,0.00,,CLR,0.00,VWS V14.01,2013-10-19 16:05:00,
2013-10-19 12:10:00,59.4,44.2,29.85,SW,223,4.0,9.0,57,0.00,,CLR,0.00,VWS V14.01,2013-10-19 16:10:00,
2013-10-19 12:15:00,59.3,44.1,29.84,SW,232,6.0,9.0,57,0.00,,CLR,0.00,VWS V14.01,2013-10-19 16:15:00,
2013-10-19 12:20:00,59.3,43.6,29.84,SW,225,8.0,9.0,56,0.00,,CLR,0.00,VWS V14.01,2013-10-19 16:20:00,
2013-10-19 12:25:00,59.4,43.7,29.82,WSW,243,7.0,9.0,56,0.00,,CLR,0.00,VWS V14.01,2013-10-19 16:25:00,
2013-10-19 12:30:00,59.5,42.9,29.81,SW,226,6.0,9.0,54,0.00,,CLR,0.00,VWS V14.01,2013-10-19 16:30:00,
2013-10-19 12:35:00,59.8,44.5,29.82,SW,226,4.0,6.0,57,0.00,,CLR,0.00,VWS V14.01,2013-10-19 16:35:00,
2013-10-19 12:40:00,59.7,43.5,29.81,South,187,4.0,7.0,55,0.00,,CLR,0.00,VWS V14.01,2013-10-19 16:40:00,
2013-10-19 12:45:00,59.6,43.4,29.81,SSW,201,3.0,9.0,55,0.00,,SCT060,0.00,VWS V14.01,2013-10-19 16:45:00,
2013-10-19 12:50:00,59.8,44.1,29.80,SW,224,6.0,11.0,56,0.00,,SCT060,0.00,VWS V14.01,2013-10-19 16:50:00,
2013-10-19 12:56:00,59.8,44.1,29.80,SSW,203,4.0,11.0,56,0.00,,SCT060,0.00,VWS V14.01,2013-10-19 16:56:00,
2013-10-19 13:01:00,59.9,43.7,29.80,SW,222,5.0,11.0,55,0.00,,SCT060,0.00,VWS V14.01,2013-10-19 17:01:00,
2013-10-19 13:06:00,59.9,44.2,29.80,SSW,203,4.0,8.0,56,0.00,,SCT060,0.00,VWS V14.01,2013-10-19 17:06:00,
2013-10-19 13:11:00,59.9,44.2,29.80,WSW,241,7.0,11.0,56,0.00,,SCT060,0.00,VWS V14.01,2013-10-19 17:11:00,
2013-10-19 13:16:00,59.6,43.4,29.80,WSW,251,4.0,11.0,55,0.00,,SCT060,0.00,VWS V14.01,2013-10-19 17:16:00,
2013-10-19 13:21:00,59.4,43.7,29.80,SW,231,8.0,11.0,56,0.00,,SCT060,0.00,VWS V14.01,2013-10-19 17:21:00,
2013-10-19 13:26:00,59.2,44.5,29.80,SW,228,4.0,11.0,58,0.00,,SCT060,0.00,VWS V14.01,2013-10-19 17:26:00,
2013-10-19 13:31:00,59.2,44.5,29.81,WSW,248,6.0,11.0,58,0.00,,SCT060,0.00,VWS V14.01,2013-10-19 17:31:00,
2013-10-19 13:36:00,59.0,44.3,29.81,SW,231,5.0,11.0,58,0.00,,SCT060,0.00,VWS V14.01,2013-10-19 17:36:00,
2013-10-19 13:41:00,58.8,44.5,29.80,SW,231,4.0,11.0,59,0.00,,SCT060,0.00,VWS V14.01,2013-10-19 17:41:00,
2013-10-19 13:47:00,58.7,44.4,29.79,WSW,240,5.0,11.0,59,0.00,,FEW060,0.00,VWS V14.01,2013-10-19 17:47:00,
2013-10-19 13:52:00,58.8,44.5,29.79,SSW,203,3.0,11.0,59,0.00,,FEW060,0.00,VWS V14.01,2013-10-19 17:52:00,
2013-10-19 13:57:00,59.0,45.2,29.78,SW,226,4.0,11.0,60,0.00,,FEW060,0.00,VWS V14.01,2013-10-19 17:57:00,
2013-10-19 14:02:00,59.3,45.0,29.78,SW,224,6.0,11.0,59,0.00,,FEW060,0.00,VWS V14.01,2013-10-19 18:02:00,
2013-10-19 14:07:00,59.4,44.6,29.78,South,183,2.0,7.0,58,0.00,,FEW060,0.00,VWS V14.01,2013-10-19 18:07:00,
2013-10-19 14:12:00,59.4,45.1,29.77,SW,221,4.0,7.0,59,0.00,,FEW060,0.00,VWS V14.01,2013-10-19 18:12:00,
2013-10-19 14:17:00,59.6,44.8,29.77,SSW,196,3.0,7.0,58,0.00,,FEW060,0.00,VWS V14.01,2013-10-19 18:17:00,
2013-10-19 14:22:00,59.7,44.9,29.76,SW,219,5.0,10.0,58,0.00,,FEW060,0.00,VWS V14.01,2013-10-19 18:22:00,
2013-10-19 14:27:00,59.9,45.1,29.76,SW,225,3.0,10.0,58,0.00,,FEW060,0.00,VWS V14.01,2013-10-19 18:27:00,
2013-10-19 14:32:00,60.1,45.7,29.75,SW,215,5.0,10.0,59,0.00,,FEW060,0.00,VWS V14.01,2013-10-19 18:32:00,
2013-10-19 14:38:00,60.3,45.5,29.75,WSW,244,7.0,8.0,58,0.00,,FEW060,0.00,VWS V14.01,2013-10-19 18:38:00,
2013-10-19 14:43:00,60.3,45.5,29.75,SSW,212,4.0,8.0,58,0.00,,FEW060,0.00,VWS V14.01,2013-10-19 18:43:00,
2013-10-19 14:48:00,60.3,45.9,29.74,SSW,207,4.0,8.0,59,0.00,,OVC050,0.00,VWS V14.01,2013-10-19 18:48:00,
2013-10-19 14:53:00,60.3,45.5,29.74,SW,229,4.0,9.0,58,0.00,,OVC050,0.00,VWS V14.01,2013-10-19 18:53:00,
2013-10-19 14:58:00,60.5,45.2,29.74,SW,235,6.0,10.0,57,0.00,,OVC050,0.00,VWS V14.01,2013-10-19 18:58:00,
2013-10-19 15:03:00,60.9,45.6,29.74,SSW,201,6.0,6.0,57,0.00,,OVC050,0.00,VWS V14.01,2013-10-19 19:03:00,
2013-10-19 15:08:00,60.8,45.5,29.74,SW,229,6.0,10.0,57,0.00,,OVC050,0.00,VWS V14.01,2013-10-19 19:08:00,
2013-10-19 15:13:00,60.7,45.4,29.73,SW,215,4.0,10.0,57,0.00,,OVC050,0.00,VWS V14.01,2013-10-19 19:13:00,
2013-10-19 15:18:00,60.6,45.3,29.73,South,191,5.0,10.0,57,0.00,,OVC050,0.00,VWS V14.01,2013-10-19 19:18:00,
2013-10-19 15:23:00,60.5,45.7,29.73,SW,232,9.0,12.0,58,0.00,,OVC050,0.00,VWS V14.01,2013-10-19 19:23:00,
2013-10-19 15:28:00,60.5,45.7,29.73,SSW,201,5.0,12.0,58,0.00,,OVC050,0.00,VWS V14.01,2013-10-19 19:28:00,
2013-10-19 15:34:00,60.4,46.0,29.73,SSW,197,4.0,6.0,59,0.00,,OVC050,0.00,VWS V14.01,2013-10-19 19:34:00,
2013-10-19 15:39:00,60.3,45.9,29.72,SSW,205,4.0,8.0,59,0.00,,OVC050,0.00,VWS V14.01,2013-10-19 19:39:00,
2013-10-19 15:44:00,60.2,45.4,29.72,SW,222,6.0,8.0,58,0.00,,OVC050,0.00,VWS V14.01,2013-10-19 19:44:00,
2013-10-19 15:49:00,59.9,45.5,29.72,SW,226,8.0,10.0,59,0.00,,BKN065,0.00,VWS V14.01,2013-10-19 19:49:00,
2013-10-19 15:54:00,60.0,45.7,29.71,South,176,4.0,10.0,59,0.00,,BKN065,0.00,VWS V14.01,2013-10-19 19:54:00,
2013-10-19 15:59:00,60.3,45.9,29.71,SSW,195,3.0,10.0,59,0.00,,BKN065,0.00,VWS V14.01,2013-10-19 19:59:00,
2013-10-19 16:04:00,60.3,45.5,29.71,SW,222,10.0,12.0,58,0.00,,BKN065,0.00,VWS V14.01,2013-10-19 20:04:00,
2013-10-19 16:09:00,60.3,45.9,29.70,SW,218,4.0,12.0,59,0.00,,BKN065,0.00,VWS V14.01,2013-10-19 20:09:00,
2013-10-19 16:14:00,60.3,45.5,29.71,SSW,208,6.0,13.0,58,0.00,,BKN065,0.00,VWS V14.01,2013-10-19 20:14:00,
2013-10-19 16:19:00,60.0,46.1,29.70,SW,225,9.0,13.0,60,0.00,,BKN065,0.00,VWS V14.01,2013-10-19 20:19:00,
2013-10-19 16:25:00,59.9,46.4,29.70,SSE,167,5.0,13.0,61,0.00,,BKN065,0.00,VWS V14.01,2013-10-19 20:25:00,
2013-10-19 16:30:00,60.0,46.1,29.70,SSW,212,8.0,13.0,60,0.00,,BKN065,0.00,VWS V14.01,2013-10-19 20:30:00,
2013-10-19 16:35:00,59.8,45.9,29.69,SW,226,4.0,8.0,60,0.00,,BKN065,0.00,VWS V14.01,2013-10-19 20:35:00,
2013-10-19 16:40:00,59.5,45.6,29.69,SW,219,7.0,11.0,60,0.00,,BKN065,0.00,VWS V14.01,2013-10-19 20:40:00,
2013-10-19 16:45:00,59.2,46.2,29.69,SW,226,5.0,13.0,62,0.00,,OVC075,0.00,VWS V14.01,2013-10-19 20:45:00,
2013-10-19 16:50:00,58.9,46.3,29.69,SSW,204,3.0,13.0,63,0.00,,OVC075,0.00,VWS V14.01,2013-10-19 20:50:00,
2013-10-19 16:55:00,58.8,46.2,29.69,SW,215,5.0,13.0,63,0.00,,OVC075,0.00,VWS V14.01,2013-10-19 20:55:00,
2013-10-19 17:00:00,58.7,46.2,29.69,SW,225,5.0,13.0,63,0.00,,OVC075,0.00,VWS V14.01,2013-10-19 21:00:00,
2013-10-19 17:05:00,58.6,46.1,29.68,SSE,165,4.0,7.0,63,0.00,,OVC075,0.00,VWS V14.01,2013-10-19 21:05:00,
2013-10-19 17:10:00,58.4,46.7,29.68,SSW,200,3.0,9.0,65,0.00,,OVC075,0.00,VWS V14.01,2013-10-19 21:10:00,
2013-10-19 17:15:00,58.2,46.5,29.68,SW,229,7.0,9.0,65,0.00,,OVC075,0.00,VWS V14.01,2013-10-19 21:15:00,
2013-10-19 17:21:00,58.0,46.7,29.69,SSW,212,5.0,9.0,66,0.00,,OVC075,0.00,VWS V14.01,2013-10-19 21:21:00,
2013-10-19 17:26:00,57.6,47.1,29.69,SW,219,4.0,9.0,68,0.00,,OVC075,0.00,VWS V14.01,2013-10-19 21:26:00,
2013-10-19 17:31:00,56.9,47.6,29.69,WSW,257,4.0,11.0,71,0.00,,OVC075,0.00,VWS V14.01,2013-10-19 21:31:00,
2013-10-19 17:36:00,56.2,48.0,29.69,WSW,248,5.0,6.0,74,0.00,,OVC075,0.00,VWS V14.01,2013-10-19 21:36:00,
2013-10-19 17:41:00,55.6,48.2,29.69,West,259,3.0,6.0,76,0.00,,OVC075,0.00,VWS V14.01,2013-10-19 21:41:00,
2013-10-19 17:46:00,54.9,48.5,29.70,West,266,3.0,6.0,79,0.00,,BKN080,0.00,VWS V14.01,2013-10-19 21:46:00,
2013-10-19 17:51:00,54.2,48.8,29.70,WSW,245,3.0,7.0,82,0.00,,BKN080,0.00,VWS V14.01,2013-10-19 21:51:00,
2013-10-19 17:56:00,53.8,48.4,29.70,WSW,248,4.0,9.0,82,0.00,,BKN080,0.00,VWS V14.01,2013-10-19 21:56:00,
2013-10-19 18:01:00,53.4,48.0,29.69,West,266,5.0,10.0,82,0.00,,BKN080,0.00,VWS V14.01,2013-10-19 22:01:00,
2013-10-19 18:06:00,52.9,47.6,29.70,WSW,248,5.0,9.0,82,0.00,,BKN080,0.00,VWS V14.01,2013-10-19 22:06:00,
2013-10-19 18:12:00,52.5,47.5,29.70,WSW,245,6.0,10.0,83,0.00,,BKN080,0.00,VWS V14.01,2013-10-19 22:12:00,
2013-10-19 18:17:00,52.2,47.2,29.70,West,269,5.0,10.0,83,0.00,,BKN080,0.00,VWS V14.01,2013-10-19 22:17:00,
2013-10-19 18:22:00,51.8,46.8,29.70,WSW,248,8.0,10.0,83,0.00,,BKN080,0.00,VWS V14.01,2013-10-19 22:22:00,
2013-10-19 18:27:00,51.7,46.7,29.70,WSW,245,6.0,10.0,83,0.00,,BKN080,0.00,VWS V14.01,2013-10-19 22:27:00,
2013-10-19 18:32:00,51.5,46.8,29.70,WSW,249,7.0,10.0,84,0.00,,BKN080,0.00,VWS V14.01,2013-10-19 22:32:00,
2013-10-19 18:37:00,51.2,46.5,29.70,WSW,256,3.0,8.0,84,0.00,,BKN080,0.00,VWS V14.01,2013-10-19 22:37:00,
2013-10-19 18:42:00,50.9,46.9,29.70,West,262,2.0,8.0,86,0.00,,BKN080,0.00,VWS V14.01,2013-10-19 22:42:00,
2013-10-19 18:47:00,50.6,46.6,29.70,WSW,251,2.0,8.0,86,0.00,,-RA,0.00,VWS V14.01,2013-10-19 22:47:00,
2013-10-19 18:52:00,50.4,46.7,29.70,WSW,248,5.0,8.0,87,0.00,,-RA,0.00,VWS V14.01,2013-10-19 22:52:00,
2013-10-19 18:58:00,50.4,46.7,29.70,WSW,250,2.0,8.0,87,0.00,,-RA,0.00,VWS V14.01,2013-10-19 22:58:00,
2013-10-19 19:03:00,50.4,46.7,29.70,WSW,245,3.0,8.0,87,0.00,,-RA,0.00,VWS V14.01,2013-10-19 23:03:00,
2013-10-19 19:08:00,50.3,46.6,29.70,WSW,250,2.0,3.0,87,0.00,,-RA,0.00,VWS V14.01,2013-10-19 23:08:00,
2013-10-19 19:13:00,50.2,46.8,29.70,WSW,253,1.0,3.0,88,0.00,,-RA,0.00,VWS V14.01,2013-10-19 23:13:00,
2013-10-19 19:18:00,50.1,46.7,29.70,WSW,248,1.0,3.0,88,0.01,,-RA,0.01,VWS V14.01,2013-10-19 23:18:00,
2013-10-19 19:23:00,50.1,47.0,29.70,WSW,246,1.0,4.0,89,0.01,,-RA,0.01,VWS V14.01,2013-10-19 23:23:00,
2013-10-19 19:28:00,50.0,46.9,29.70,WSW,245,1.0,4.0,89,0.01,,-RA,0.01,VWS V14.01,2013-10-19 23:28:00,
2013-10-19 19:33:00,49.9,47.1,29.70,WSW,245,1.0,1.0,90,0.01,,-RA,0.01,VWS V14.01,2013-10-19 23:33:00,
2013-10-19 19:38:00,49.8,47.0,29.70,WSW,239,2.0,2.0,90,0.01,,-RA,0.01,VWS V14.01,2013-10-19 23:38:00,
2013-10-19 19:43:00,49.7,46.9,29.70,SW,233,2.0,3.0,90,0.01,,-RA,0.01,VWS V14.01,2013-10-19 23:43:00,
2013-10-19 19:48:00,49.7,46.9,29.69,SW,232,1.0,3.0,90,0.01,,-RA,0.01,VWS V14.01,2013-10-19 23:48:00,
2013-10-19 19:54:00,49.6,47.1,29.69,SW,236,1.0,3.0,91,0.01,,-RA,0.01,VWS V14.01,2013-10-19 23:54:00,
2013-10-19 19:59:00,49.5,47.0,29.69,WSW,242,1.0,3.0,91,0.01,,-RA,0.01,VWS V14.01,2013-10-19 23:59:00,
2013-10-19 20:04:00,49.4,46.9,29.69,WSW,239,1.0,2.0,91,0.01,,-RA,0.01,VWS V14.01,2013-10-20 00:04:00,
2013-10-19 20:09:00,49.3,46.8,29.69,SW,227,2.0,3.0,91,0.01,,-RA,0.01,VWS V14.01,2013-10-20 00:09:00,
2013-10-19 20:14:00,49.3,46.8,29.69,WSW,242,4.0,4.0,91,0.01,,-RA,0.01,VWS V14.01,2013-10-20 00:14:00,
2013-10-19 20:19:00,49.4,46.9,29.69,WSW,245,1.0,4.0,91,0.01,,-RA,0.01,VWS V14.01,2013-10-20 00:19:00,
2013-10-19 20:24:00,49.5,47.0,29.69,WSW,248,1.0,4.0,91,0.01,,-RA,0.01,VWS V14.01,2013-10-20 00:24:00,
2013-10-19 20:29:00,49.5,47.0,29.70,WSW,245,2.0,4.0,91,0.01,,-RA,0.01,VWS V14.01,2013-10-20 00:29:00,
2013-10-19 20:34:00,49.5,47.0,29.70,WSW,246,1.0,2.0,91,0.00,,-RA,0.01,VWS V14.01,2013-10-20 00:34:00,
2013-10-19 20:39:00,49.5,47.0,29.70,WSW,245,1.0,2.0,91,0.00,,-RA,0.01,VWS V14.01,2013-10-20 00:39:00,
2013-10-19 20:45:00,49.5,47.0,29.70,WSW,253,1.0,2.0,91,0.00,,-RA,0.01,VWS V14.01,2013-10-20 00:45:00,
2013-10-19 20:50:00,49.5,47.0,29.70,WSW,240,2.0,2.0,91,0.00,,-RA,0.01,VWS V14.01,2013-10-20 00:50:00,
2013-10-19 20:55:00,49.5,47.0,29.70,WSW,243,4.0,5.0,91,0.00,,-RA,0.01,VWS V14.01,2013-10-20 00:55:00,
2013-10-19 21:00:00,49.7,47.2,29.70,WSW,239,5.0,6.0,91,0.00,,-RA,0.01,VWS V14.01,2013-10-20 01:00:00,
2013-10-19 21:05:00,49.7,47.2,29.70,WSW,250,4.0,5.0,91,0.00,,-RA,0.01,VWS V14.01,2013-10-20 01:05:00,
2013-10-19 21:10:00,49.7,47.2,29.71,WSW,250,3.0,6.0,91,0.00,,-RA,0.01,VWS V14.01,2013-10-20 01:10:00,
2013-10-19 21:15:00,49.9,47.1,29.71,West,259,4.0,6.0,90,0.00,,-RA,0.01,VWS V14.01,2013-10-20 01:15:00,
2013-10-19 21:20:00,50.2,46.2,29.72,WSW,250,6.0,15.0,86,0.00,,-RA,0.01,VWS V14.01,2013-10-20 01:20:00,
2013-10-19 21:25:00,50.2,45.6,29.73,WSW,243,10.0,15.0,84,0.00,,-RA,0.01,VWS V14.01,2013-10-20 01:25:00,
2013-10-19 21:31:00,49.7,45.4,29.73,WNW,295,4.0,15.0,85,0.00,,-RA,0.01,VWS V14.01,2013-10-20 01:31:00,
2013-10-19 21:36:00,49.0,44.7,29.74,West,274,4.0,5.0,85,0.00,,-RA,0.01,VWS V14.01,2013-10-20 01:36:00,
2013-10-19 21:41:00,48.5,44.2,29.74,West,270,3.0,6.0,85,0.00,,-RA,0.01,VWS V14.01,2013-10-20 01:41:00,
2013-10-19 21:46:00,48.2,44.2,29.75,West,271,1.0,7.0,86,0.00,,OVC055,0.01,VWS V14.01,2013-10-20 01:46:00,
2013-10-19 21:51:00,47.8,43.5,29.74,WSW,255,4.0,7.0,85,0.00,,OVC055,0.01,VWS V14.01,2013-10-20 01:51:00,
2013-10-19 21:56:00,47.5,43.5,29.75,West,271,3.0,7.0,86,0.00,,OVC055,0.01,VWS V14.01,2013-10-20 01:56:00,
2013-10-19 22:01:00,47.3,43.6,29.75,WNW,286,1.0,7.0,87,0.00,,OVC055,0.01,VWS V14.01,2013-10-20 02:01:00,
2013-10-19 22:06:00,47.2,43.2,29.75,WSW,256,5.0,8.0,86,0.00,,OVC055,0.01,VWS V14.01,2013-10-20 02:06:00,
2013-10-19 22:12:00,47.3,43.3,29.75,West,270,4.0,8.0,86,0.00,,OVC055,0.01,VWS V14.01,2013-10-20 02:12:00,
2013-10-19 22:17:00,47.2,42.9,29.75,West,269,6.0,10.0,85,0.00,,OVC055,0.01,VWS V14.01,2013-10-20 02:17:00,
2013-10-19 22:22:00,47.1,42.5,29.76,WSW,256,4.0,10.0,84,0.00,,OVC055,0.01,VWS V14.01,2013-10-20 02:22:00,
2013-10-19 22:27:00,46.9,42.3,29.76,West,269,5.0,10.0,84,0.00,,OVC055,0.01,VWS V14.01,2013-10-20 02:27:00,
2013-10-19 22:32:00,46.7,42.1,29.76,West,264,5.0,10.0,84,0.00,,OVC055,0.01,VWS V14.01,2013-10-20 02:32:00,
2013-10-19 22:37:00,46.5,42.2,29.76,West,259,4.0,6.0,85,0.00,,OVC055,0.01,VWS V14.01,2013-10-20 02:37:00,
2013-10-19 22:42:00,46.5,41.9,29.77,WSW,258,6.0,7.0,84,0.00,,OVC055,0.01,VWS V14.01,2013-10-20 02:42:00,
2013-10-19 22:47:00,46.5,41.9,29.77,West,262,5.0,8.0,84,0.00,,OVC049,0.01,VWS V14.01,2013-10-20 02:47:00,
2013-10-19 22:52:00,46.6,42.0,29.77,WSW,243,5.0,8.0,84,0.00,,OVC049,0.01,VWS V14.01,2013-10-20 02:52:00,
2013-10-19 22:57:00,46.6,42.0,29.77,West,269,2.0,8.0,84,0.00,,OVC049,0.01,VWS V14.01,2013-10-20 02:57:00,
2013-10-19 23:03:00,46.7,42.1,29.77,West,269,3.0,8.0,84,0.00,,OVC049,0.01,VWS V14.01,2013-10-20 03:03:00,
2013-10-19 23:08:00,46.7,41.8,29.77,WSW,250,4.0,7.0,83,0.00,,OVC049,0.01,VWS V14.01,2013-10-20 03:08:00,
2013-10-19 23:13:00,46.7,41.8,29.77,West,271,2.0,7.0,83,0.00,,OVC049,0.01,VWS V14.01,2013-10-20 03:13:00,
2013-10-19 23:18:00,46.6,41.7,29.77,West,267,3.0,7.0,83,0.00,,OVC049,0.01,VWS V14.01,2013-10-20 03:18:00,
2013-10-19 23:23:00,46.5,41.6,29.77,West,280,4.0,7.0,83,0.00,,OVC049,0.01,VWS V14.01,2013-10-20 03:23:00,
2013-10-19 23:28:00,46.5,41.6,29.78,WSW,256,3.0,7.0,83,0.00,,OVC049,0.01,VWS V14.01,2013-10-20 03:28:00,
2013-10-19 23:33:00,46.5,41.3,29.78,West,276,1.0,3.0,82,0.00,,OVC049,0.01,VWS V14.01,2013-10-20 03:33:00,
2013-10-19 23:38:00,46.4,41.2,29.78,WSW,257,4.0,10.0,82,0.00,,OVC049,0.01,VWS V14.01,2013-10-20 03:38:00,
2013-10-19 23:43:00,46.4,41.2,29.78,West,267,10.0,11.0,82,0.00,,OVC049,0.01,VWS V14.01,2013-10-20 03:43:00,
2013-10-19 23:48:00,46.4,41.2,29.79,WSW,254,4.0,11.0,82,0.00,,BKN034,0.01,VWS V14.01,2013-10-20 03:48:00,
2013-10-19 23:54:00,46.2,40.7,29.79,West,267,4.0,11.0,81,0.00,,BKN034,0.01,VWS V14.01,2013-10-20 03:54:00,
2013-10-19 23:59:00,46.1,40.6,29.79,WSW,253,5.0,11.0,81,0.00,,BKN034,0.01,VWS V14.01,2013-10-20 03:59:00,